Lid_Strength_Index
2 4 6 7 11 13 15 14 12 12 12 10 9 8 9 10 10 13 7 8 8 7 3 2 0 0 0 -1 -1 -1 -1 -1 -1 -1 -1 -1 -1 -1 -1 -1 -1 -1 -2 -2 -2 -2 -2 -2 -2
4 4 7 10 14 16 16 14 13 12 11 8 8 9 10 11 9 8 8 7 7 4 3 2 -1 -0 -0 1 0 -0 -1 -1 -1 -1 -1 -1 -1 -1 -1 -1 -1 -2 -2 -2 -2 -2 -2 -2 -3
5 5 9 12 17 16 16 14 12 12 11 10 9 9 10 10 9 8 8 6 5 6 5 3 -0 -1 -1 -0 1 1 1 0 -1 -1 -1 -1 -1 -1 -1 -1 -1 -2 -2 -2 -2 -2 -2 -2 -2
6 8 11 13 15 14 14 13 13 12 11 10 9 11 10 8 8 8 7 6 6 6 5 3 0 0 -0 -1 -1 1 1 1 1 0 -1 -1 -1 -1 -1 -1 -2 -2 -2 -2 -2 -2 -2 -2 -2
8 11 15 16 16 14 13 13 13 13 13 12 11 11 11 9 8 8 8 7 7 6 6 5 2 2 1 1 0 -0 -1 0 1 1 1 -1 -1 -1 -1 -1 -1 -1 -2 -2 -2 -2 -2 -2 -2
11 12 16 17 16 14 14 13 13 13 12 12 11 11 11 9 9 9 8 8 7 7 7 6 4 3 2 2 1 1 -0 -1 -0 1 2 1 1 -0 -1 -1 -1 -1 -2 -2 -2 -2 -2 -2 -2
12 14 16 16 16 14 13 12 13 13 13 13 10 12 11 10 9 8 9 9 8 8 7 7 7 6 4 3 2 2 1 0 -0 -1 1 2 2 1 0 -1 -1 -1 -1 -2 -2 -2 -2 -2 -1
12 14 17 17 16 15 13 13 13 13 13 11 11 13 13 10 9 9 9 9 9 8 8 8 8 7 7 6 3 2 2 1 1 1 0 2 1 2 1 0 -1 -1 -1 -2 -2 -2 -2 -2 -1
12 15 17 17 16 16 13 14 12 11 12 11 11 11 10 9 9 10 10 9 9 8 9 9 9 8 7 6 4 3 2 2 2 2 2 1 1 0 2 0 -0 -1 -1 -1 -2 -2 -2 -1 -1
14 17 16 15 15 15 14 14 13 13 13 13 12 11 10 10 11 11 11 11 11 10 9 9 9 8 8 6 5 5 4 4 3 3 3 2 1 2 -0 2 1 -0 -0 -1 -1 -1 -1 -0 1
15 17 15 13 13 13 14 14 13 14 14 13 12 11 11 11 11 11 11 11 11 10 10 9 9 8 8 7 6 6 5 4 4 4 3 3 2 1 -1 0 0 0 2 -0 -1 -0 0 1 1
16 14 13 12 12 13 14 13 14 13 12 12 11 11 11 11 11 11 11 11 11 11 10 9 9 9 9 8 7 6 6 5 5 4 3 3 3 3 1 1 0 -0 -0 1 0 0 1 2 2
15 14 13 12 12 13 12 13 14 14 12 11 11 11 11 11 11 11 10 10 10 11 10 10 9 9 8 8 7 6 6 6 6 5 4 4 4 4 2 1 1 -0 -0 -0 1 1 1 2 3
14 13 13 13 13 13 14 14 13 13 12 12 12 12 11 11 11 11 11 11 11 10 10 10 10 9 9 8 7 7 6 6 6 6 5 4 4 4 4 2 2 0 0 0 1 1 2 3 4
13 15 14 14 13 14 14 15 15 13 13 13 12 12 11 11 11 11 11 11 11 11 11 11 10 9 9 8 7 6 6 5 5 5 4 4 4 4 5 2 3 0 0 0 1 1 2 3 4
15 16 18 15 13 13 15 17 15 14 13 13 13 12 12 12 11 11 11 13 12 12 12 11 9 10 9 7 7 6 5 5 4 4 4 4 4 4 4 3 3 1 -0 0 1 2 2 3 4
17 20 19 16 13 14 15 17 15 14 14 14 13 12 12 12 12 12 13 13 12 12 12 11 10 10 9 7 7 5 5 5 4 4 4 4 4 4 4 3 3 3 0 0 1 2 2 3 4
20 19 18 18 16 15 16 16 13 13 14 14 14 13 12 12 12 12 13 12 12 12 12 11 11 10 8 7 6 5 5 4 4 4 4 4 3 3 5 3 3 3 1 1 1 2 2 3 3
17 18 19 17 15 16 17 16 15 14 14 14 14 13 13 12 12 13 13 13 13 12 12 11 11 10 8 7 7 7 6 5 4 3 3 2 3 3 5 5 4 3 1 1 1 2 3 4 4
17 19 19 17 16 16 17 17 15 15 16 15 15 14 13 13 13 13 14 14 14 13 12 12 11 10 8 7 7 6 5 5 4 3 3 2 2 2 5 5 3 1 1 1 1 2 3 4 3
18 19 20 19 17 17 19 18 18 16 15 14 15 14 13 13 13 14 14 14 14 13 13 11 11 9 8 7 7 6 5 3 3 3 3 3 2 2 4 2 3 1 2 2 2 2 3 4 3
19 17 17 18 19 22 19 22 19 18 17 15 15 15 14 13 13 14 14 15 14 13 12 12 11 9 8 7 7 7 6 6 4 2 2 3 2 3 2 2 1 2 2 1 2 1 2 3 4
18 17 18 18 19 21 21 23 19 19 18 17 15 15 15 14 14 14 14 14 13 12 12 12 11 10 8 7 7 7 7 6 4 2 3 4 3 2 2 1 1 1 1 1 1 2 2 3 4
16 17 18 19 20 24 23 23 20 21 18 18 16 15 15 15 15 15 14 14 13 12 12 12 11 10 9 8 7 8 8 7 6 3 3 2 2 1 0 1 0 1 0 1 1 2 2 3 3
17 19 23 24 24 22 21 22 19 17 16 16 16 15 15 15 15 15 16 15 13 13 12 11 11 11 10 8 8 8 8 7 7 5 4 3 3 3 2 2 1 1 1 2 1 2 3 3 3
19 19 22 25 25 23 20 22 18 17 16 15 15 15 15 15 15 16 16 15 14 13 12 12 12 11 10 9 9 9 8 8 7 7 6 5 4 4 3 4 3 3 4 4 3 4 4 5 5
19 20 19 22 26 24 22 20 18 18 17 17 16 16 16 16 16 16 16 15 14 13 13 12 11 10 11 10 9 9 9 9 9 8 7 6 6 5 5 5 5 5 5 5 6 7 7 7 7
18 18 22 23 26 26 22 22 20 18 18 17 17 17 16 17 17 16 16 15 14 14 13 12 11 11 11 10 10 10 9 10 9 9 9 9 8 7 6 6 6 6 6 7 7 8 8 9 9
19 20 20 21 22 23 25 20 18 18 18 17 17 16 16 17 17 17 17 16 14 14 13 13 11 11 11 10 10 10 10 10 10 10 10 10 9 9 8 8 8 8 8 8 9 9 10 10 11
19 19 20 22 23 23 22 21 17 17 18 17 16 16 16 17 17 18 17 16 15 14 13 13 11 11 11 11 11 11 10 10 10 10 10 10 10 10 10 10 10 10 10 10 11 11 12 12 13